This is the latest recevied weather packets stored in our database for station/object KI2K. If no packets are shown the sender has not sent any weather packets the latest 10 day(s).
| Time | Temp. | Humidity | Pressure | Rain* | Wind** | Luminosity | Snow |
|---|---|---|---|---|---|---|---|
| 1777897201 | 13.33° C | 79% | 1007.1 hPa | 0 mm | - | 51 W/m² | - |
| 1777896896 | 13.33° C | 79% | 1007.1 hPa | 0 mm | - | 80 W/m² | - |
| 1777896594 | 13.33° C | 79% | 1006.9 hPa | 0 mm | - | 87 W/m² | - |
| 1777896290 | 12.78° C | 81% | 1006.9 hPa | 0 mm | - | 99 W/m² | - |
| 1777895990 | 12.22° C | 81% | 1006.9 hPa | 0 mm | - | 75 W/m² | - |
| 1777895687 | 12.22° C | 82% | 1007 hPa | 0 mm | - | 60 W/m² | - |
| 1777895383 | 11.67° C | 82% | 1007.1 hPa | 0 mm | - | 46 W/m² | - |
| 1777895081 | 11.67° C | 82% | 1007 hPa | 0 mm | - | 38 W/m² | - |
| 1777894778 | 11.67° C | 82% | 1007 hPa | 0 mm | - | 35 W/m² | - |
| 1777894475 | 11.67° C | 82% | 1006.9 hPa | 0 mm | - | 33 W/m² | - |
| 1777894172 | 11.67° C | 82% | 1007.1 hPa | 0 mm | - | 27 W/m² | - |
| 1777893870 | 11.11° C | 82% | 1006.9 hPa | 0 mm | - | 22 W/m² | - |
| 1777893566 | 11.11° C | 82% | 1006.9 hPa | 0 mm | - | 19 W/m² | - |
| 1777893262 | 11.11° C | 82% | 1007.1 hPa | 0 mm | - | 16 W/m² | - |
| 1777892959 | 11.11° C | 82% | 1006.9 hPa | 0 mm | - | 11 W/m² | - |
| 1777892656 | 11.11° C | 81% | 1006.8 hPa | 0 mm | - | 6 W/m² | - |
| 1777892351 | 11.11° C | 81% | 1006.8 hPa | 0 mm | - | 5 W/m² | - |
| 1777892048 | 11.11° C | 81% | 1006.8 hPa | 0 mm | - | 4 W/m² | - |
| 1777891745 | 11.11° C | 80% | 1007 hPa | 0 mm | - | 2 W/m² | - |
| 1777891441 | 11.11° C | 80% | 1007 hPa | 0 mm | - | 1 W/m² | - |
| 1777891137 | 11.11° C | 80% | 1006.9 hPa | 0 mm | - | 0 W/m² | - |
| 1777890832 | 11.11° C | 80% | 1007 hPa | 0 mm | - | 0 W/m² | - |
| 1777890528 | 11.11° C | 79% | 1007.2 hPa | 0 mm | - | 0 W/m² | - |
| 1777890224 | 11.11° C | 79% | 1007.3 hPa | 0 mm | - | 0 W/m² | - |
| 1777889920 | 10.56° C | 79% | 1007.2 hPa | 0 mm | - | 0 W/m² | - |
* Rain latest hour (hover to see other rain measurements)
** Current wind speed in m/s (hover to see current wind gust speed)